Location: Larkspur
(54.4391°N, 113.7691°W)
Time: 12:33:55
(UTC+00:00)

Oscar 19 - Pass Details

Date: 03 December 2023
Orbit: 771 x 789 km, 98.9° (Epoch: 01 March)

Event Time Altitude Azimuth Distance (km) Brightness Sun altitude
Rises 14:43:17 0° 9° (N) 3,270 13.7 -7.2°
Reaches altitude 10° 14:46:30 10° 348° (NNW) 2,342 12.7 -6.8°
Maximum altitude 14:49:24 15° 313° (NW) 1,984 12.1 -6.4°
Drops below altitude 10° 14:52:20 10° 278° (W) 2,341 12.5 -6.1°
Sets 14:55:33 0° 257° (WSW) 3,269 13.4 -5.7°
